[[{"header":{"parameterUnit":"m.s-1","parameterCategory":1,"la1":30.2991,"la2":30.254,"lo1":-89.0895,"lo2":-89.0444,"dy":0.0017,"dx":0.0017,"nx":28,"ny":28,"refTime":"2024-08-29T09:00:00:Z","depth":0,"parameterNumber":2,"parameterNumberName":"U-component_of_WINDS"},"data":[0,0,0,0,0,0,0,0,0,0,0,0,0,0,0,0,0,0,0,0,0,0,0,0,0,0,0,0,0,0,0,0,0,0,0,0,0,0,0,0,0,0,0,0,0,0,0,0,0,0,0,0,0,0,0,0,0,0,-1.2759,-1.276,0,-1.2872,-1.2873,-1.2874,-1.288,-1.2879,-1.2878,-1.2876,-1.2995,-1.2999,-1.3003,0,0,0,0,0,0,0,0,0,0,0,0,0,-1.2552,-1.2556,-1.2759,-1.276,-1.2761,-1.2871,-1.2873,-1.2874,-1.288,-1.2879,-1.2877,-1.2876,-1.2993,-1.2998,-1.3003,0,0,0,0,0,0,0,0,0,0,0,0,0,-1.2651,-1.2557,-1.2758,-1.2778,-1.278,-1.2871,-1.2873,-1.2875,-1.2881,-1.2879,-1.2877,-1.2875,-1.2991,-1.2998,-1.3004,-1.3084,0,0,-1.3024,-1.3027,0,0,0,0,0,0,0,0,-1.2645,-1.2659,-1.2773,-1.2776,-1.278,-1.286,-1.2843,-1.2945,-1.2881,-1.2843,-1.2876,-1.2874,-1.2951,-1.2961,-1.2987,-1.309,-1.3095,-1.3025,-1.3029,-1.3032,-1.3033,0,0,0,0,0,0,0,-1.2638,-1.2654,-1.2803,-1.2775,-1.2779,-1.2782,-1.2794,-1.2863,-1.2907,-1.2846,-1.2847,-1.286,-1.2953,-1.298,-1.299,-1.3096,-1.3025,-1.303,-1.3034,-1.3037,-1.3272,-1.3275,0,0,0,0,0,0,-1.2627,-1.2648,-1.28,-1.2807,-1.2706,-1.2787,-1.28,-1.2836,-1.2906,-1.2915,-1.2861,-1.286,-1.297,-1.2982,-1.2994,-1.3093,-1.3032,-1.3038,-1.3041,-1.327,-1.3273,-1.3275,0,0,0,0,0,0,-1.2623,-1.2641,-1.2795,-1.2728,-1.2747,-1.2793,-1.2833,-1.2839,-1.2867,-1.2918,-1.2926,-1.2881,-1.2969,-1.2984,-1.3062,-1.3097,-1.3041,-1.3047,-1.3267,-1.3271,-1.3274,-1.3291,0,0,0,0,0,0,-1.2617,-1.2639,-1.2669,-1.2728,-1.2751,-1.286,-1.2835,-1.2843,-1.2878,-1.2877,-1.2938,-1.2947,-1.2969,-1.3052,-1.3068,-1.3105,-1.3052,-1.3264,-1.3269,-1.3273,-1.3288,-1.3295,-1.3301,0,0,0,0,0,-1.261,-1.267,-1.267,-1.2689,-1.2789,-1.2862,-1.2875,-1.2899,-1.2881,-1.2912,-1.2945,-1.2945,-1.309,-1.306,-1.3078,-1.3118,-1.3262,-1.3268,-1.3273,-1.3285,-1.3294,-1.3301,0,0,0,0,0,0,-1.2614,-1.2678,-1.2679,-1.276,-1.2806,-1.2863,-1.2903,-1.2907,-1.2959,-1.2956,-1.2984,-1.2997,-1.3074,-1.3104,-1.3068,-1.32,-1.3175,-1.3184,-1.3178,-1.3186,-1.3193,-1.3184,-1.3057,0,0,0,0,0,-1.2624,-1.2677,-1.273,-1.2797,-1.2819,-1.2857,-1.289,-1.2904,-1.2953,-1.2972,-1.3011,-1.3059,-1.3116,-1.3153,-1.3207,-1.3292,-1.3307,-1.3329,-1.3335,-1.334,-1.3348,-1.3397,-1.3408,-1.3293,-1.3293,-1.3292,0,0,-1.2646,-1.2687,-1.2719,-1.2799,-1.2836,-1.2891,-1.2873,-1.2933,-1.2975,-1.2982,-1.3057,-1.3087,-1.3143,-1.3224,-1.3262,-1.3251,-1.3383,-1.3347,-1.3351,-1.3356,-1.3403,-1.3414,-1.3424,-1.3296,-1.3296,-1.3295,0,0,-1.2715,-1.2751,-1.281,-1.2848,-1.2904,-1.2929,-1.2944,-1.3001,-1.3021,-1.3097,-1.3104,-1.3155,-1.3251,-1.3291,-1.3324,-1.3409,-1.3412,-1.3427,-1.3462,-1.3509,-1.3518,-1.3526,-1.3558,-1.3569,-1.3434,-1.3434,-1.3434,0,-1.2735,-1.2818,-1.2841,-1.2901,-1.2936,-1.2944,-1.3006,-1.3042,-1.3113,-1.3138,-1.3124,-1.3247,-1.3285,-1.3377,-1.3398,-1.3424,-1.3442,-1.342,-1.3515,-1.3523,-1.3531,-1.3562,-1.3574,-1.3436,-1.3436,-1.3435,-1.3435,0,-1.2841,-1.2899,-1.2941,-1.3009,-1.305,-1.311,-1.3143,-1.3181,-1.3192,-1.3219,-1.3297,-1.3343,-1.3408,-1.3431,-1.3442,-1.3525,-1.3517,-1.3509,-1.3484,-1.3543,-1.3573,-1.3584,-1.3438,-1.3437,-1.3437,-1.3436,0,0,-1.2916,-1.2996,-1.3012,-1.3043,-1.3107,-1.3152,-1.3214,-1.3277,-1.331,-1.3359,-1.3413,-1.3495,-1.3488,-1.3525,-1.3541,-1.3583,-1.3649,-1.357,-1.3572,-1.3584,-1.3746,-1.3752,-1.3765,-1.3651,-1.3654,-1.3655,-1.3741,0,-1.2992,-1.3101,-1.3124,-1.3218,-1.3273,-1.3282,-1.3336,-1.3381,-1.3408,-1.346,-1.349,-1.3548,-1.3534,-1.3557,-1.3598,-1.3632,-1.3682,-1.3626,-1.3703,-1.3705,-1.3689,-1.378,-1.3787,-1.3866,-1.3753,-1.3755,-1.3756,0,-1.3096,-1.3147,-1.3247,-1.3304,-1.3328,-1.3376,-1.3437,-1.3485,-1.3537,-1.3554,-1.3597,-1.3609,-1.3675,-1.3646,-1.3739,-1.37,-1.3733,-1.3755,-1.3758,-1.3767,-1.3735,-1.3793,-1.3892,-1.3904,-1.3774,-1.3773,-1.3772,0,-1.3142,-1.3236,-1.3309,-1.3335,-1.3404,-1.3437,-1.3468,-1.3518,-1.3555,-1.3608,-1.3633,-1.3693,-1.3726,-1.3774,-1.3802,-1.3779,-1.3893,-1.3867,-1.391,-1.391,-1.3934,-1.3933,-1.4041,-1.3954,-1.3953,-1.3953,-1.3953,0,-1.3225,-1.3287,-1.333,-1.3375,-1.3444,-1.347,-1.3539,-1.3569,-1.3614,-1.3666,-1.3677,-1.3726,-1.376,-1.3814,-1.3837,-1.391,-1.3925,-1.3942,-1.3947,-1.3942,-1.394,-1.3964,-1.396,-1.3956,-1.3956,-1.3955,-1.3954,0,-1.3289,-1.332,-1.34,-1.3458,-1.3474,-1.3523,-1.3573,-1.3618,-1.3645,-1.3711,-1.3728,-1.3771,-1.3835,-1.3868,-1.3948,-1.3964,-1.4047,-1.4049,-1.4029,-1.4032,-1.4074,-1.407,-1.4203,-1.4222,-1.4121,-1.4121,-1.4122,0,-1.334,-1.3388,-1.3451,-1.3486,-1.3517,-1.3573,-1.3611,-1.3639,-1.3679,-1.3743,-1.378,-1.3844,-1.3897,-1.4,-1.4039,-1.4101,-1.4105,-1.4147,-1.4115,-1.4108,-1.4108,-1.4105,-1.4111,-1.4154,-1.4154,-1.4155,-1.4156,0,-1.343,-1.3443,-1.3497,-1.3557,-1.3601,-1.365,-1.3698,-1.3726,-1.3763,-1.3806,-1.3872,-1.3913,-1.3995,-1.4059,-1.4124,-1.4157,-1.4163,-1.4166,-1.4179,-1.4175,-1.4162,-1.4171,-1.4047,-1.4163,-1.4162,-1.4162,-1.4161,-1.4161,-1.349,-1.3533,-1.3585,-1.3645,-1.3684,-1.3728,-1.3773,-1.3807,-1.3861,-1.393,-1.3943,-1.4013,-1.4066,-1.4153,-1.4188,-1.4244,-1.4235,-1.4254,-1.4259,-1.4264,-1.4267,-1.4152,-1.4255,-1.4255,-1.4255,-1.4255,-1.4255,0,-1.3581,-1.3615,-1.367,-1.3737,-1.3784,-1.3785,-1.3838,-1.3879,-1.3939,-1.3988,-1.404,-1.4116,-1.4179,-1.4223,-1.4288,-1.4324,-1.4329,-1.434,-1.4339,-1.4346,-1.427,-1.4253,-1.4335,-1.4335,-1.4335,-1.4335,-1.4335,-1.4335,-1.3634,-1.3708,-1.3728,-1.3821,-1.3855,-1.3923,-1.3953,-1.3995,-1.4034,-1.4118,-1.417,-1.4199,-1.4246,-1.4314,-1.4373,-1.4384,-1.4408,-1.442,-1.4432,-1.436,-1.4351,-1.4343,-1.4327,-1.4424,-1.4424,-1.4504,-1.4504,-1.4505]},{"header":{"parameterUnit":"m.s-1","parameterCategory":1,"la1":30.2991,"la2":30.254,"lo1":-89.0895,"lo2":-89.0444,"dy":0.0017,"dx":0.0017,"nx":28,"ny":28,"refTime":"2024-08-29T09:00:00:Z","depth":0,"parameterNumber":3,"parameterNumberName":"V-component_of_WINDS"},"data":[0,0,0,0,0,0,0,0,0,0,0,0,0,0,0,0,0,0,0,0,0,0,0,0,0,0,0,0,0,0,0,0,0,0,0,0,0,0,0,0,0,0,0,0,0,0,0,0,0,0,0,0,0,0,0,0,0,0,3.0251,3.0252,0,3.037,3.0372,3.0373,3.0409,3.0408,3.0407,3.0407,3.0529,3.0533,3.0537,0,0,0,0,0,0,0,0,0,0,0,0,0,3.0054,3.0058,3.0251,3.0252,3.0254,3.037,3.0372,3.0373,3.0409,3.0408,3.0407,3.0406,3.0528,3.0533,3.0537,0,0,0,0,0,0,0,0,0,0,0,0,0,3.0153,3.0059,3.025,3.0285,3.029,3.037,3.0372,3.0374,3.0409,3.0408,3.0407,3.0406,3.0527,3.0532,3.0538,3.0592,0,0,3.0556,3.0558,0,0,0,0,0,0,0,0,3.0147,3.016,3.0279,3.0283,3.0288,3.0374,3.0348,3.0447,3.0409,3.0364,3.0407,3.0406,3.0478,3.0488,3.0513,3.0598,3.0603,3.0556,3.056,3.0562,3.0564,0,0,0,0,0,0,0,3.0141,3.0155,3.0298,3.028,3.0286,3.0295,3.0308,3.0367,3.0425,3.0367,3.037,3.0384,3.0481,3.0507,3.0516,3.0605,3.0556,3.0561,3.0565,3.0567,3.0742,3.0743,0,0,0,0,0,0,3.0128,3.0149,3.0294,3.0302,3.0214,3.03,3.0314,3.0347,3.0424,3.0435,3.0385,3.0385,3.0497,3.0509,3.052,3.0589,3.0562,3.0567,3.0571,3.0741,3.0742,3.0743,0,0,0,0,0,0,3.0123,3.014,3.0289,3.0226,3.0246,3.0304,3.0341,3.035,3.0376,3.0437,3.0448,3.04,3.0497,3.0512,3.0574,3.0594,3.057,3.0575,3.0739,3.0741,3.0743,3.0727,0,0,0,0,0,0,3.0117,3.0138,3.0159,3.0227,3.0249,3.0341,3.0342,3.0353,3.0386,3.0388,3.0455,3.0465,3.0498,3.0565,3.058,3.0601,3.058,3.0738,3.074,3.0742,3.0726,3.0728,3.0729,0,0,0,0,0,3.011,3.015,3.016,3.0177,3.0276,3.0342,3.0355,3.0391,3.0387,3.0409,3.0448,3.0463,3.0589,3.0571,3.0588,3.0611,3.0737,3.074,3.0742,3.0725,3.0727,3.0729,0,0,0,0,0,0,3.0083,3.0159,3.0171,3.0234,3.0281,3.0348,3.0376,3.0393,3.0442,3.0442,3.0485,3.05,3.0559,3.0592,3.057,3.0668,3.0664,3.067,3.0645,3.0648,3.0649,3.064,3.0585,0,0,0,0,0,3.0084,3.0131,3.0195,3.0244,3.0267,3.0317,3.0347,3.0371,3.0422,3.0443,3.0487,3.0536,3.0587,3.0619,3.0669,3.0731,3.0746,3.0755,3.0757,3.0758,3.0763,3.0799,3.0803,3.0752,3.0752,3.0752,0,0,3.0087,3.0135,3.0161,3.024,3.0279,3.0327,3.0334,3.0384,3.042,3.045,3.0511,3.0546,3.0603,3.0666,3.0695,3.0695,3.0781,3.0762,3.0762,3.0766,3.0802,3.0807,3.0811,3.0754,3.0754,3.0753,0,0,3.0117,3.0158,3.0203,3.0242,3.0302,3.0336,3.0347,3.0411,3.0435,3.0497,3.0521,3.0565,3.0652,3.0692,3.0724,3.077,3.0786,3.0785,3.0794,3.0829,3.0833,3.0837,3.0853,3.0859,3.079,3.079,3.079,0,3.0113,3.0185,3.0224,3.0273,3.0307,3.0337,3.0383,3.042,3.0493,3.0516,3.0515,3.0624,3.0665,3.0738,3.0749,3.0774,3.0788,3.0777,3.0829,3.0833,3.0837,3.0854,3.086,3.0789,3.0789,3.079,3.079,0,3.0178,3.0228,3.0257,3.0327,3.0364,3.0412,3.0458,3.0492,3.0513,3.0547,3.061,3.0661,3.0722,3.0741,3.0762,3.0817,3.0815,3.082,3.0816,3.0841,3.0857,3.0864,3.0789,3.0789,3.0789,3.0789,0,0,3.0193,3.0284,3.0294,3.0326,3.0395,3.0434,3.0484,3.0544,3.0571,3.0622,3.0664,3.0737,3.0744,3.078,3.0806,3.0836,3.087,3.0839,3.0841,3.0842,3.0934,3.0928,3.0935,3.0881,3.0882,3.0884,3.0929,0,3.0231,3.0319,3.0356,3.0427,3.0474,3.0504,3.0547,3.0594,3.0628,3.0673,3.071,3.0761,3.0765,3.0787,3.0819,3.0859,3.0889,3.0856,3.0921,3.0923,3.0905,3.0943,3.0938,3.0978,3.0935,3.0936,3.0937,0,3.0287,3.0337,3.0413,3.0476,3.0498,3.0535,3.0594,3.0636,3.0691,3.0713,3.0754,3.0779,3.0833,3.0826,3.09,3.0878,3.0907,3.0931,3.0933,3.094,3.0931,3.0951,3.0991,3.0997,3.0947,3.0947,3.0946,0,3.0289,3.0376,3.0433,3.046,3.0535,3.0561,3.0594,3.0648,3.0682,3.0733,3.0756,3.0813,3.0844,3.0888,3.0928,3.0919,3.0999,3.0995,3.1019,3.1018,3.1033,3.1032,3.1079,3.1053,3.1053,3.1053,3.1053,0,3.0328,3.0373,3.0435,3.047,3.0522,3.0564,3.0615,3.065,3.0698,3.0741,3.0771,3.081,3.0861,3.0907,3.0939,3.0996,3.101,3.103,3.1038,3.1027,3.1024,3.1046,3.1044,3.1054,3.1054,3.1054,3.1053,0,3.0339,3.0382,3.0446,3.0513,3.0531,3.0566,3.0624,3.0659,3.0694,3.0748,3.0764,3.0819,3.0875,3.092,3.0993,3.1015,3.1075,3.1084,3.1056,3.106,3.1081,3.1079,3.1143,3.1154,3.1121,3.1121,3.1122,0,3.036,3.0396,3.0466,3.0497,3.0529,3.0578,3.0613,3.0657,3.0692,3.0757,3.0785,3.0844,3.0892,3.0981,3.1028,3.1085,3.1095,3.1114,3.1104,3.1092,3.1096,3.1093,3.1097,3.1115,3.1115,3.1115,3.1115,0,3.0393,3.0413,3.0462,3.0518,3.0559,3.0606,3.0653,3.0677,3.0729,3.0767,3.0825,3.0863,3.0938,3.0996,3.1058,3.1093,3.1113,3.1118,3.1127,3.1116,3.1098,3.1108,3.1059,3.1116,3.1116,3.1116,3.1116,3.1116,3.041,3.0443,3.0498,3.0552,3.0592,3.0636,3.0672,3.0712,3.0761,3.0826,3.0849,3.0908,3.0963,3.1048,3.1084,3.1132,3.1133,3.1145,3.1148,3.115,3.1149,3.1091,3.1143,3.1143,3.1143,3.1143,3.1143,0,3.0444,3.0481,3.053,3.0596,3.0638,3.0653,3.0707,3.0742,3.0793,3.0843,3.0891,3.0958,3.1014,3.1066,3.1125,3.1154,3.1165,3.1168,3.1166,3.1174,3.1145,3.1131,3.1158,3.1158,3.1158,3.1158,3.1158,3.1158,3.0467,3.0524,3.0551,3.0628,3.0666,3.0724,3.0753,3.0794,3.0834,3.0907,3.0954,3.0987,3.1038,3.1102,3.1155,3.1169,3.1189,3.119,3.1206,3.1178,3.1176,3.1174,3.1161,3.1194,3.1194,3.1232,3.1232,3.1232]}]]